SCP
0 0 0 0 0 0 0 0 0 0 0 0 0 0 0 0 0 0 0 0 0 0 0 0 0 0 0 0 0 0 0 0 0 0 0 0 0 0 0 0 0 0 0 0 0
0 0 0 0 0 0 -0 -0 0 0 0 0 0 0 0 0 -0 0 0 0 0 0 0 0 0 0 0 0 0 0 0 0 0 0 0 0 0 0 0 0 0 0 0 0 0
-0 -0 -0 0 -0 -0 -0 -0 -0 -0 -0 0 0 0 0 0 -0 0 0 0 0 0 0 0 0 0 0 0 0 0 0 0 0 0 0 0 0 0 0 0 0 0 0 0 0
0 0 -0 -0 -0 -0 -0 -0 -0 -0 -0 -0 0 0 0 0 0 0 0 0 0 0 0 0 0 0 0 0 0 0 0 0 0 0 0 0 0 0 0 0 0 0 0 0 0
0 0 -0 -0 -0 -0 -0 -0 -0 -0 -0 -0 -0 -0 -0 0 0 0 0 0 0 0 0 0 0 0 0 0 0 0 0 0 0 0 0 0 0 0 0 0 0 0 0 0 0
0 -0 -0 -0 -0 -0 -0 -0 -0 -0 -0 -0 -0 -0 -0 -0 0 0 0 0 0 0 0 0 0 0 0 0 0 0 0 0 0 0 0 0 0 0 0 0 0 0 0 0 0
-0 -0 -0 -0 0 0 0 0 0 0 0 -0 0 -0 -0 -0 0 0 0 0 0 0 0 0 0 0 0 0 0 0 0 0 0 0 0 0 0 0 0 0 0 0 0 0 0
-0 -0 -0 -0 0 0 0 0 0 0 0 0 0 -0 -0 0 0 0 0 0 0 0 0 0 0 0 0 0 0 0 0 0 0 0 0 0 0 0 0 0 0 0 0 0 0
-0 -0 -0 -0 0 0 0 0 0 0 0 0 0 -0 -0 0 0 0 0 0 0 0 0 0 0 0 0 0 0 0 0 0 0 0 0 0 0 0 0 0 0 0 0 0 0
-0 0 0 0 0 0 0 0 0 0 0 0 0 -0 0 -0 0 0 0 0 0 0 0 0 0 0 0 0 0 0 0 0 0 0 0 0 0 0 0 0 0 0 0 0 0
0 0 0 0 0 0 0 0 0 0 0 0 0 -0 0 0 -0 0 0 0 0 0 0 0 0 0 0 0 0 0 0 0 0 0 0 0 0 0 0 0 0 0 0 0 0
0 0 0 0 0 0 0 0 0 0 0 0 0 0 -0 -0 -0 0 0 0 0 0 0 0 0 0 0 0 0 0 0 0 0 0 0 0 0 0 0 0 0 0 0 0 0
0 0 0 0 0 0 0 0 0 0 0 0 0 0 0 0 -0 0 0 -0 0 0 0 0 0 0 0 0 0 0 0 0 0 0 0 0 0 0 0 0 0 0 0 0 0
0 0 0 0 0 0 0 0 0 0 0 0 0 0 0 0 -0 -0 -0 -0 -0 0 0 0 0 -0 0 0 0 0 0 0 0 0 0 0 -0 0 -0 0 0 0 0 0 0
0 0 0 0 0 0 0 0 0 0 0 0 0 0 0 0 0 0 0 -0 -0 0 -0 -0 -0 -0 0 0 -0 0 0 0 0 0 0 0 -0 -0 0 0 0 0 0 0 0
0 0 0 0 0 0 0 0 0 0 0 0 0 0 0 0 0 0 0 0 0 -0 -0 -0 -0 -0 -0 0 0 0 0 0 0 0 0 0 0 -0 -0 0 0 0 0 0 0
0 0 0 0 0 0 0 0 0 0 0 0 0 0 0 0 0 0 0 0 0 0 0 0 -0 -0 -0 0 0 0 0 -0 -0 0 -0 -0 -0 -0 0 0 0 0 0 0 0
0 0 0 0 0 0 0 0 0 0 0 0 0 0 0 0 0 0 0 0 0 0 0 0 0 -0 -0 -0 0 -0 -0 0 -0 -0 -0 -0 0 0 0 0 0 0 0 0 0
0 0 0 0 0 0 0 0 0 0 0 0 0 0 0 0 0 0 0 0 0 0 0 0 0 0 -0 -0 -0 -0 -0 -0 0 0 0 0 -0 0 0 0 0 0 0 0 0
0 0 0 0 0 0 0 0 0 0 0 0 0 0 0 0 0 0 0 0 0 0 0 0 0 0 0 -0 -0 -0 0 0 0 0 0 0 -0 -0 0 -0 0 0 0 0 0
0 0 0 0 0 0 0 0 0 0 0 0 0 0 0 0 0 0 0 0 0 0 0 0 0 0 0 0 0 0 0 0 0 0 0 0 0 0 0 0 0 0 0 0 0
0 0 0 0 0 0 0 0 0 0 0 0 0 0 0 0 0 0 0 0 0 0 0 0 0 0 0 0 0 0 0 -0 0 0 0 0 0 0 0 0 0 0 0 0 0
0 0 0 0 0 0 0 0 0 0 0 0 0 0 0 0 0 0 0 0 0 0 0 0 0 0 -0 0 0 0 0 0 0 0 0 0 0 0 0 0 0 0 0 0 0
0 0 0 0 0 0 0 0 0 0 0 0 0 0 0 0 0 0 0 0 0 0 0 0 0 0 0 0 0 0 0 0 0 0 0 0 0 0 0 0 0 0 0 0 0
0 0 0 0 0 0 0 0 0 0 0 0 0 0 0 0 0 0 0 0 0 0 0 0 0 0 0 0 0 0 0 0 0 0 0 0 0 0 0 0 0 0 -0 0 0
0 0 0 0 0 0 0 0 0 0 0 0 0 0 0 0 0 0 0 0 0 0 0 0 0 0 -0 0 -0 0 0 0 0 0 0 0 0 0 0 0 0 0 0 0 0
0 0 0 0 0 0 0 0 0 0 0 0 0 0 0 0 0 0 0 0 0 0 0 0 0 0 -0 0 0 -0 -0 0 0 0 0 0 -0 0 0 0 0 0 0 0 0
Wind_Speed_500mb
32 33 36 38 39 36 34 34 35 36 35 34 30 30 29 25 20 15 5 11 18 24 22 17 22 21 17 13 18 11 14 22 27 21 14 10 11 5 6 6 8 10 5 9 35
30 32 37 40 40 40 41 42 40 37 35 34 32 27 28 25 19 13 12 11 11 21 17 16 15 17 12 14 14 18 22 34 19 26 12 12 10 5 8 15 16 12 14 16 42
27 33 34 35 36 36 39 42 43 43 40 37 32 29 26 19 8 5 17 17 18 16 18 12 11 10 12 12 19 16 29 33 22 20 20 15 11 9 10 14 19 23 25 27 47
24 24 26 28 30 33 34 36 38 42 41 40 37 31 24 15 9 13 21 20 17 16 19 10 4 5 9 17 16 16 29 30 27 19 14 16 12 11 19 8 5 8 20 32 49
24 27 27 28 30 31 29 33 34 35 39 37 34 30 24 10 8 19 20 21 20 11 10 6 6 2 11 7 9 23 22 18 30 15 23 12 23 21 22 16 14 12 18 32 46
23 25 28 31 30 30 33 31 32 33 35 35 31 29 20 1 10 17 23 20 18 12 6 7 6 2 4 6 9 11 20 21 13 31 18 18 29 15 22 27 27 25 21 31 43
23 23 25 29 34 37 39 39 35 32 31 33 28 26 9 4 11 16 20 21 20 17 7 1 2 1 1 6 11 11 16 16 31 19 18 23 39 29 51 26 20 18 22 30 39
22 24 26 31 35 38 38 38 34 28 25 26 26 18 4 8 12 24 19 14 14 11 10 3 2 4 6 9 8 9 12 25 20 30 20 28 49 45 58 47 53 47 31 26 38
14 15 20 24 30 34 37 37 29 22 35 27 14 14 7 11 31 18 22 23 20 9 4 3 5 5 5 8 12 15 24 36 26 17 21 35 40 49 49 51 62 62 53 44 35
15 17 22 29 32 33 37 30 29 10 37 20 20 6 25 28 22 24 22 19 16 13 3 3 3 6 7 12 19 23 20 21 24 3 15 30 40 36 23 51 57 62 65 56 48
14 19 24 29 33 36 38 20 29 10 41 17 17 10 21 34 17 24 27 13 14 10 8 9 7 10 8 12 19 17 17 19 15 17 24 26 38 45 56 43 35 56 57 59 57
16 18 22 26 27 33 36 30 24 11 7 24 19 18 18 31 15 26 29 13 13 9 11 3 8 4 4 11 11 19 25 30 26 28 23 32 42 39 48 54 62 54 49 57 56
15 17 21 24 19 29 35 32 26 25 7 11 15 16 20 26 13 18 22 11 11 11 12 9 7 9 15 11 14 23 27 20 15 24 34 33 57 55 53 58 61 66 67 62 54
15 18 20 23 13 24 26 26 25 12 6 20 12 9 20 26 3 14 12 10 5 10 11 9 7 6 9 9 13 19 13 27 24 12 14 18 25 30 42 59 56 65 66 71 64
16 16 17 16 14 17 17 21 20 5 7 22 12 17 35 9 16 6 15 6 9 13 7 4 6 11 16 10 9 7 11 7 16 23 19 32 18 29 37 38 43 61 71 68 72
17 13 14 13 11 14 15 20 6 2 6 9 8 17 24 8 10 14 7 7 8 9 12 23 16 12 21 12 11 2 8 11 14 17 24 39 31 26 33 27 27 38 61 74 74
18 14 10 10 9 12 15 8 4 8 5 9 7 11 17 10 8 9 13 12 8 11 8 15 11 6 20 14 12 11 8 6 11 13 20 20 30 39 20 18 12 10 22 43 58
18 15 11 9 8 6 10 1 9 2 10 5 8 12 6 12 4 12 10 8 4 3 10 11 5 7 13 18 7 24 25 10 14 15 17 32 22 12 3 30 31 33 39 27 33
19 17 13 8 5 5 2 5 8 11 5 5 10 5 3 2 8 11 6 4 2 5 5 9 10 12 17 12 13 10 22 36 23 29 12 14 39 34 18 20 17 19 19 33 22
21 15 14 9 4 3 3 3 7 9 7 5 5 3 5 4 7 6 5 5 4 8 2 3 16 12 5 9 22 25 6 10 14 12 17 17 32 23 6 27 34 19 24 18 16
21 7 9 10 4 1 3 7 9 15 13 11 8 6 13 6 4 5 5 5 8 7 12 5 9 8 7 11 16 11 10 14 9 10 16 16 15 4 3 11 19 20 16 15 15
15 3 8 11 4 3 4 8 6 8 14 13 9 14 12 12 8 7 10 12 17 7 8 10 6 12 24 26 11 11 29 29 16 21 21 25 35 6 7 11 17 30 22 16 15
10 9 9 14 5 5 4 7 10 12 13 11 11 18 13 10 8 15 12 10 19 14 8 6 6 13 14 4 3 9 12 23 33 30 35 29 33 17 15 29 30 18 17 15 16
11 3 6 14 6 7 7 6 6 13 8 12 8 6 10 13 22 10 12 10 13 22 18 9 13 19 21 16 7 24 29 34 23 17 28 34 51 48 51 46 51 37 18 20 17
14 8 11 6 10 7 5 5 6 7 13 16 8 21 17 9 8 19 23 24 23 22 15 9 12 17 32 38 35 40 44 44 32 44 31 49 42 49 42 31 41 41 24 22 27
13 12 10 7 11 13 8 10 15 7 14 11 16 9 24 15 20 24 17 21 22 9 13 10 18 7 23 38 42 46 48 41 44 48 39 52 52 59 51 57 48 36 28 32 32
35 17 8 15 11 8 9 12 14 14 19 15 23 9 19 39 49 52 51 52 44 21 20 13 9 7 23 16 29 25 32 39 37 41 39 34 54 27 29 26 23 26 34 35 36
Wind_Direction_500mb
45 43 40 34 31 25 23 22 16 8 4 1 359 352 349 351 350 344 1 345 337 333 306 263 248 242 234 211 212 209 228 230 224 207 211 177 221 196 238 217 184 189 141 175 182
42 40 36 31 24 18 16 18 18 15 8 1 356 354 346 347 351 22 30 5 345 333 313 276 246 231 216 205 182 218 228 232 227 219 207 189 224 194 229 201 204 187 191 171 181
38 36 33 29 23 19 13 11 10 7 6 2 358 355 346 343 352 1 346 335 339 337 335 310 254 228 224 216 191 196 232 234 232 213 208 214 218 199 233 228 219 209 189 182 183
37 36 30 24 19 18 13 8 3 358 357 356 354 352 355 355 303 341 339 340 357 350 340 340 303 210 223 213 219 219 230 239 241 209 196 212 216 217 221 255 164 175 194 197 192
23 22 16 13 12 11 7 0 356 349 345 346 347 347 358 348 323 335 345 340 344 347 354 29 71 301 221 272 272 235 219 242 240 231 216 199 216 230 225 220 225 242 231 214 207
21 15 8 3 358 0 5 352 350 349 337 336 341 344 350 292 320 346 345 345 348 19 35 53 84 106 293 276 281 321 278 259 275 230 224 212 231 209 228 233 244 247 242 219 213
18 9 3 357 358 4 4 3 358 353 341 336 339 341 12 17 348 342 343 354 357 2 8 317 84 116 15 257 324 289 281 245 233 231 230 215 241 230 235 226 219 225 229 227 219
10 5 3 2 0 0 360 359 354 351 351 345 342 349 82 35 24 342 328 327 330 337 345 231 240 281 231 307 295 252 236 238 205 206 221 204 242 225 235 231 239 239 233 235 232
13 16 12 4 2 3 359 354 356 352 356 345 2 15 49 3 335 1 347 337 337 345 318 192 187 234 213 224 237 222 245 229 239 214 228 212 242 238 233 232 239 241 235 233 235
22 17 10 5 5 7 4 2 355 25 2 355 1 32 18 347 360 4 354 342 345 358 64 64 154 215 211 208 228 227 226 223 223 181 270 247 243 249 237 228 234 238 238 233 233
4 4 2 0 3 6 8 19 24 15 30 45 357 2 348 2 8 8 360 358 356 45 8 6 228 230 253 261 291 283 257 253 265 277 322 268 257 248 247 238 236 240 238 236 229
338 344 352 354 1 9 7 47 55 14 23 22 14 14 357 358 337 0 6 18 14 40 345 291 281 70 310 267 274 262 260 256 269 276 277 273 269 264 259 251 244 240 237 236 237
322 336 345 350 0 7 18 30 25 14 71 8 360 344 342 340 336 337 7 356 7 6 5 313 9 280 318 281 250 247 255 256 286 304 271 275 277 261 257 250 247 244 243 240 238
309 328 338 348 3 3 17 9 1 34 86 355 348 343 341 327 280 353 4 352 340 337 335 295 326 311 315 286 244 264 251 247 264 285 264 197 275 250 231 239 238 239 237 237 235
290 315 328 346 349 3 359 354 350 63 34 341 312 325 338 340 328 7 340 324 307 316 300 350 272 274 273 256 205 273 324 266 252 257 293 248 260 260 242 253 242 234 236 236 235
266 290 312 327 347 350 346 344 18 23 356 339 310 345 348 351 348 317 338 314 279 285 243 263 281 268 247 261 223 269 279 242 255 259 250 236 229 265 235 248 258 236 239 236 233
247 267 283 305 325 337 341 347 55 74 31 321 324 343 330 318 325 351 334 334 339 323 336 304 234 248 226 245 198 204 201 222 209 205 244 200 213 249 282 293 258 282 270 252 238
231 242 253 276 305 328 344 55 72 77 244 349 300 324 317 348 321 326 326 343 50 302 292 327 311 194 175 234 276 211 208 216 234 212 258 207 231 234 324 245 257 285 269 269 249
218 224 231 250 263 306 4 67 193 198 184 261 302 317 301 299 319 331 343 287 268 0 357 315 265 304 232 225 225 183 215 241 289 281 264 231 245 264 262 278 265 272 276 256 266
209 215 231 224 219 289 81 230 195 186 183 201 248 254 272 297 320 333 316 197 204 178 298 312 289 273 305 200 235 241 357 207 207 244 246 228 244 245 228 237 249 246 262 260 274
196 220 232 184 191 250 213 222 232 224 191 210 225 226 241 274 226 267 275 261 238 203 211 214 233 272 299 222 255 188 218 221 287 254 265 261 241 144 4 4 321 310 317 306 277
193 186 214 181 107 12 207 193 213 211 200 242 254 238 229 192 237 245 246 240 193 219 257 199 291 277 265 269 283 279 254 235 236 242 239 265 265 277 187 359 334 317 320 287 256
200 186 195 182 192 199 286 266 256 195 202 187 233 222 212 223 244 218 224 259 231 216 232 183 253 300 290 173 162 248 273 265 261 261 253 254 259 253 298 296 304 313 306 287 248
183 161 182 196 196 145 182 215 253 222 227 199 231 207 201 243 233 259 233 259 216 222 225 227 233 229 257 292 316 288 283 276 278 285 279 259 265 266 272 278 288 283 263 250 228
208 204 181 193 209 169 175 182 197 239 213 213 230 210 198 227 232 235 252 257 251 244 235 223 251 241 256 269 273 267 266 269 252 252 256 270 272 273 271 289 283 284 239 225 215
207 171 169 151 134 147 187 223 210 221 185 218 231 224 210 225 216 272 260 258 262 231 212 196 261 255 282 275 264 266 265 263 259 258 249 251 267 261 278 275 267 255 230 213 202
219 206 168 164 167 158 215 214 218 180 235 217 217 239 232 242 255 259 267 272 266 246 229 237 254 268 283 317 314 276 251 246 250 241 231 234 239 275 270 282 269 246 229 223 203
Wind_Speed_850mb
32 33 36 38 39 36 34 34 35 36 35 34 30 30 29 25 20 15 5 11 18 24 22 17 22 21 17 13 18 11 14 22 27 21 14 10 11 5 6 6 8 10 5 9 35
30 32 37 40 40 40 41 42 40 37 35 34 32 27 28 25 19 13 12 11 11 21 17 16 15 17 12 14 14 18 22 34 19 26 12 12 10 5 8 15 16 12 14 16 42
27 33 34 35 36 36 39 42 43 43 40 37 32 29 26 19 8 5 17 17 18 16 18 12 11 10 12 12 19 16 29 33 22 20 20 15 11 9 10 14 19 23 25 27 47
24 24 26 28 30 33 34 36 38 42 41 40 37 31 24 15 9 13 21 20 17 16 19 10 4 5 9 17 16 16 29 30 27 19 14 16 12 11 19 8 5 8 20 32 49
24 27 27 28 30 31 29 33 34 35 39 37 34 30 24 10 8 19 20 21 20 11 10 6 6 2 11 7 9 23 22 18 30 15 23 12 23 21 22 16 14 12 18 32 46
23 25 28 31 30 30 33 31 32 33 35 35 31 29 20 1 10 17 23 20 18 12 6 7 6 2 4 6 9 11 20 21 13 31 18 18 29 15 22 27 27 25 21 31 43
23 23 25 29 34 37 39 39 35 32 31 33 28 26 9 4 11 16 20 21 20 17 7 1 2 1 1 6 11 11 16 16 31 19 18 23 39 29 51 26 20 18 22 30 39
22 24 26 31 35 38 38 38 34 28 25 26 26 18 4 8 12 24 19 14 14 11 10 3 2 4 6 9 8 9 12 25 20 30 20 28 49 45 58 47 53 47 31 26 38
14 15 20 24 30 34 37 37 29 22 35 27 14 14 7 11 31 18 22 23 20 9 4 3 5 5 5 8 12 15 24 36 26 17 21 35 40 49 49 51 62 62 53 44 35
15 17 22 29 32 33 37 30 29 10 37 20 20 6 25 28 22 24 22 19 16 13 3 3 3 6 7 12 19 23 20 21 24 3 15 30 40 36 23 51 57 62 65 56 48
14 19 24 29 33 36 38 20 29 10 41 17 17 10 21 34 17 24 27 13 14 10 8 9 7 10 8 12 19 17 17 19 15 17 24 26 38 45 56 43 35 56 57 59 57
16 18 22 26 27 33 36 30 24 11 7 24 19 18 18 31 15 26 29 13 13 9 11 3 8 4 4 11 11 19 25 30 26 28 23 32 42 39 48 54 62 54 49 57 56
15 17 21 24 19 29 35 32 26 25 7 11 15 16 20 26 13 18 22 11 11 11 12 9 7 9 15 11 14 23 27 20 15 24 34 33 57 55 53 58 61 66 67 62 54
15 18 20 23 13 24 26 26 25 12 6 20 12 9 20 26 3 14 12 10 5 10 11 9 7 6 9 9 13 19 13 27 24 12 14 18 25 30 42 59 56 65 66 71 64
16 16 17 16 14 17 17 21 20 5 7 22 12 17 35 9 16 6 15 6 9 13 7 4 6 11 16 10 9 7 11 7 16 23 19 32 18 29 37 38 43 61 71 68 72
17 13 14 13 11 14 15 20 6 2 6 9 8 17 24 8 10 14 7 7 8 9 12 23 16 12 21 12 11 2 8 11 14 17 24 39 31 26 33 27 27 38 61 74 74
18 14 10 10 9 12 15 8 4 8 5 9 7 11 17 10 8 9 13 12 8 11 8 15 11 6 20 14 12 11 8 6 11 13 20 20 30 39 20 18 12 10 22 43 58
18 15 11 9 8 6 10 1 9 2 10 5 8 12 6 12 4 12 10 8 4 3 10 11 5 7 13 18 7 24 25 10 14 15 17 32 22 12 3 30 31 33 39 27 33
19 17 13 8 5 5 2 5 8 11 5 5 10 5 3 2 8 11 6 4 2 5 5 9 10 12 17 12 13 10 22 36 23 29 12 14 39 34 18 20 17 19 19 33 22
21 15 14 9 4 3 3 3 7 9 7 5 5 3 5 4 7 6 5 5 4 8 2 3 16 12 5 9 22 25 6 10 14 12 17 17 32 23 6 27 34 19 24 18 16
21 7 9 10 4 1 3 7 9 15 13 11 8 6 13 6 4 5 5 5 8 7 12 5 9 8 7 11 16 11 10 14 9 10 16 16 15 4 3 11 19 20 16 15 15
15 3 8 11 4 3 4 8 6 8 14 13 9 14 12 12 8 7 10 12 17 7 8 10 6 12 24 26 11 11 29 29 16 21 21 25 35 6 7 11 17 30 22 16 15
10 9 9 14 5 5 4 7 10 12 13 11 11 18 13 10 8 15 12 10 19 14 8 6 6 13 14 4 3 9 12 23 33 30 35 29 33 17 15 29 30 18 17 15 16
11 3 6 14 6 7 7 6 6 13 8 12 8 6 10 13 22 10 12 10 13 22 18 9 13 19 21 16 7 24 29 34 23 17 28 34 51 48 51 46 51 37 18 20 17
14 8 11 6 10 7 5 5 6 7 13 16 8 21 17 9 8 19 23 24 23 22 15 9 12 17 32 38 35 40 44 44 32 44 31 49 42 49 42 31 41 41 24 22 27
13 12 10 7 11 13 8 10 15 7 14 11 16 9 24 15 20 24 17 21 22 9 13 10 18 7 23 38 42 46 48 41 44 48 39 52 52 59 51 57 48 36 28 32 32
35 17 8 15 11 8 9 12 14 14 19 15 23 9 19 39 49 52 51 52 44 21 20 13 9 7 23 16 29 25 32 39 37 41 39 34 54 27 29 26 23 26 34 35 36
Wind_Direction_850mb
45 43 40 34 31 25 23 22 16 8 4 1 359 352 349 351 350 344 1 345 337 333 306 263 248 242 234 211 212 209 228 230 224 207 211 177 221 196 238 217 184 189 141 175 182
42 40 36 31 24 18 16 18 18 15 8 1 356 354 346 347 351 22 30 5 345 333 313 276 246 231 216 205 182 218 228 232 227 219 207 189 224 194 229 201 204 187 191 171 181
38 36 33 29 23 19 13 11 10 7 6 2 358 355 346 343 352 1 346 335 339 337 335 310 254 228 224 216 191 196 232 234 232 213 208 214 218 199 233 228 219 209 189 182 183
37 36 30 24 19 18 13 8 3 358 357 356 354 352 355 355 303 341 339 340 357 350 340 340 303 210 223 213 219 219 230 239 241 209 196 212 216 217 221 255 164 175 194 197 192
23 22 16 13 12 11 7 0 356 349 345 346 347 347 358 348 323 335 345 340 344 347 354 29 71 301 221 272 272 235 219 242 240 231 216 199 216 230 225 220 225 242 231 214 207
21 15 8 3 358 0 5 352 350 349 337 336 341 344 350 292 320 346 345 345 348 19 35 53 84 106 293 276 281 321 278 259 275 230 224 212 231 209 228 233 244 247 242 219 213
18 9 3 357 358 4 4 3 358 353 341 336 339 341 12 17 348 342 343 354 357 2 8 317 84 116 15 257 324 289 281 245 233 231 230 215 241 230 235 226 219 225 229 227 219
10 5 3 2 0 0 360 359 354 351 351 345 342 349 82 35 24 342 328 327 330 337 345 231 240 281 231 307 295 252 236 238 205 206 221 204 242 225 235 231 239 239 233 235 232
13 16 12 4 2 3 359 354 356 352 356 345 2 15 49 3 335 1 347 337 337 345 318 192 187 234 213 224 237 222 245 229 239 214 228 212 242 238 233 232 239 241 235 233 235
22 17 10 5 5 7 4 2 355 25 2 355 1 32 18 347 360 4 354 342 345 358 64 64 154 215 211 208 228 227 226 223 223 181 270 247 243 249 237 228 234 238 238 233 233
4 4 2 0 3 6 8 19 24 15 30 45 357 2 348 2 8 8 360 358 356 45 8 6 228 230 253 261 291 283 257 253 265 277 322 268 257 248 247 238 236 240 238 236 229
338 344 352 354 1 9 7 47 55 14 23 22 14 14 357 358 337 0 6 18 14 40 345 291 281 70 310 267 274 262 260 256 269 276 277 273 269 264 259 251 244 240 237 236 237
322 336 345 350 0 7 18 30 25 14 71 8 360 344 342 340 336 337 7 356 7 6 5 313 9 280 318 281 250 247 255 256 286 304 271 275 277 261 257 250 247 244 243 240 238
309 328 338 348 3 3 17 9 1 34 86 355 348 343 341 327 280 353 4 352 340 337 335 295 326 311 315 286 244 264 251 247 264 285 264 197 275 250 231 239 238 239 237 237 235
290 315 328 346 349 3 359 354 350 63 34 341 312 325 338 340 328 7 340 324 307 316 300 350 272 274 273 256 205 273 324 266 252 257 293 248 260 260 242 253 242 234 236 236 235
266 290 312 327 347 350 346 344 18 23 356 339 310 345 348 351 348 317 338 314 279 285 243 263 281 268 247 261 223 269 279 242 255 259 250 236 229 265 235 248 258 236 239 236 233
247 267 283 305 325 337 341 347 55 74 31 321 324 343 330 318 325 351 334 334 339 323 336 304 234 248 226 245 198 204 201 222 209 205 244 200 213 249 282 293 258 282 270 252 238
231 242 253 276 305 328 344 55 72 77 244 349 300 324 317 348 321 326 326 343 50 302 292 327 311 194 175 234 276 211 208 216 234 212 258 207 231 234 324 245 257 285 269 269 249
218 224 231 250 263 306 4 67 193 198 184 261 302 317 301 299 319 331 343 287 268 0 357 315 265 304 232 225 225 183 215 241 289 281 264 231 245 264 262 278 265 272 276 256 266
209 215 231 224 219 289 81 230 195 186 183 201 248 254 272 297 320 333 316 197 204 178 298 312 289 273 305 200 235 241 357 207 207 244 246 228 244 245 228 237 249 246 262 260 274
196 220 232 184 191 250 213 222 232 224 191 210 225 226 241 274 226 267 275 261 238 203 211 214 233 272 299 222 255 188 218 221 287 254 265 261 241 144 4 4 321 310 317 306 277
193 186 214 181 107 12 207 193 213 211 200 242 254 238 229 192 237 245 246 240 193 219 257 199 291 277 265 269 283 279 254 235 236 242 239 265 265 277 187 359 334 317 320 287 256
200 186 195 182 192 199 286 266 256 195 202 187 233 222 212 223 244 218 224 259 231 216 232 183 253 300 290 173 162 248 273 265 261 261 253 254 259 253 298 296 304 313 306 287 248
183 161 182 196 196 145 182 215 253 222 227 199 231 207 201 243 233 259 233 259 216 222 225 227 233 229 257 292 316 288 283 276 278 285 279 259 265 266 272 278 288 283 263 250 228
208 204 181 193 209 169 175 182 197 239 213 213 230 210 198 227 232 235 252 257 251 244 235 223 251 241 256 269 273 267 266 269 252 252 256 270 272 273 271 289 283 284 239 225 215
207 171 169 151 134 147 187 223 210 221 185 218 231 224 210 225 216 272 260 258 262 231 212 196 261 255 282 275 264 266 265 263 259 258 249 251 267 261 278 275 267 255 230 213 202
219 206 168 164 167 158 215 214 218 180 235 217 217 239 232 242 255 259 267 272 266 246 229 237 254 268 283 317 314 276 251 246 250 241 231 234 239 275 270 282 269 246 229 223 203